START_TIME,STEP,MOV.,AL01,t_acc.,AL02,t_acc.,E37,t_acc.,H21,t_acc.
1979-07-12 00:00:58.710 ,1,1,20.,24.0,2.,24.0,56.,24.0,0.,24.0
1979-07-12 00:01:22.710 ,1,0,13.,24.0,6.,24.0,51.,24.0,0.,24.0
1979-07-12 00:01:46.710 ,2,1,23.,24.0,2.,24.0,55.,24.0,0.,24.0
1979-07-12 00:02:10.710 ,2,0,36.,24.0,6.,24.0,51.,24.0,0.,24.0
1979-07-12 00:02:34.710 ,3,1,30.,24.0,5.,24.0,60.,24.0,0.,24.0
1979-07-12 00:02:58.710 ,3,0,33.,24.0,9.,24.0,42.,24.0,0.,24.0
1979-07-12 00:03:22.710 ,4,1,36.,24.0,5.,24.0,46.,24.0,0.,24.0
1979-07-12 00:03:46.710 ,4,0,35.,24.0,5.,24.0,61.,24.0,0.,24.0
1979-07-12 00:04:10.710 ,0,0,26.,24.0,9.,24.0,64.,24.0,0.,24.0
1979-07-12 00:04:34.710 ,0,0,31.,24.0,12.,24.0,53.,24.0,0.,24.0
1979-07-12 00:04:59.310 ,0,0,30.,24.0,7.,24.0,72.,24.0,0.,24.0
1979-07-12 00:05:22.710 ,0,0,34.,24.0,8.,24.0,58.,24.0,0.,24.0
1979-07-12 00:06:35.310 ,0,0,33.,24.0,0.,24.0,63.,24.0,0.,24.0
1979-07-12 00:06:58.710 ,0,0,,0,,0,,0,,0
1979-07-12 00:07:23.310 ,6,1,18.,24.0,3.,24.0,54.,24.0,0.,24.0
1979-07-12 00:07:46.710 ,0,0,22.,24.0,10.,24.0,68.,24.0,0.,24.0
1979-07-12 00:08:10.710 ,0,0,32.,24.0,6.,24.0,84.,24.0,0.,24.0
1979-07-12 00:08:34.710 ,0,0,,0,,0,,0,,0
1979-07-12 00:09:46.710 ,0,0,,0,,0,,0,,0
1979-07-12 00:10:10.710 ,0,0,,0,,0,,0,,0
1979-07-12 00:10:37.110 ,0,0,,0,,0,,0,,0
1979-07-12 00:10:58.710 ,0,0,50.,24.0,7.,24.0,76.,24.0,0.,24.0
1979-07-12 00:12:11.310 ,0,0,44.,24.0,8.,24.0,59.,24.0,0.,24.0
1979-07-12 00:12:34.710 ,0,0,,0,,0,,0,,0
1979-07-12 00:12:58.710 ,0,0,,0,,0,,0,,0
1979-07-12 00:13:22.710 ,0,0,,0,,0,,0,,0
1979-07-12 00:13:46.710 ,0,0,,0,,0,,0,,0
1979-07-12 00:14:10.710 ,0,0,42.,24.0,16.,24.0,72.,24.0,0.,24.0
1979-07-12 00:14:34.710 ,0,0,41.,24.0,11.,24.0,70.,24.0,0.,24.0
1979-07-12 00:14:58.710 ,0,0,,0,,0,,0,,0
1979-07-12 00:15:23.310 ,0,0,44.,24.0,8.,24.0,78.,24.0,0.,24.0
1979-07-12 00:15:46.710 ,0,0,,0,,0,,0,,0
1979-07-12 00:16:10.710 ,0,0,47.,24.0,16.,24.0,72.,24.0,0.,24.0
1979-07-12 00:16:34.710 ,0,0,,0,,0,,0,,0
1979-07-12 00:16:58.710 ,0,0,,0,,0,,0,,0
1979-07-12 00:17:22.710 ,0,0,,0,,0,,0,,0
1979-07-12 00:17:46.710 ,0,0,,0,,0,,0,,0
1979-07-12 00:18:10.710 ,0,0,23.,24.0,0.,24.0,74.,24.0,0.,24.0
1979-07-12 00:18:34.710 ,0,0,31.,24.0,0.,24.0,80.,24.0,0.,24.0
1979-07-12 00:18:58.710 ,0,0,,0,,0,,0,,0
1979-07-12 00:19:22.710 ,0,0,,0,,0,,0,,0
1979-07-12 00:19:46.710 ,0,0,,0,,0,,0,,0
1979-07-12 00:20:11.310 ,0,0,,0,,0,,0,,0
1979-07-12 00:20:34.710 ,0,0,,0,,0,,0,,0
1979-07-12 00:20:58.710 ,0,0,30.,24.0,4.,24.0,76.,24.0,0.,24.0
1979-07-12 00:21:22.710 ,0,0,,0,,0,,0,,0
1979-07-12 00:21:47.310 ,0,0,43.,24.0,7.,24.0,64.,24.0,0.,24.0
1979-07-12 00:22:10.710 ,6,1,57.,24.0,8.,24.0,74.,24.0,0.,24.0
1979-07-12 00:22:34.710 ,0,0,45.,24.0,6.,24.0,92.,24.0,0.,24.0
1979-07-12 00:22:58.710 ,1,1,41.,24.0,12.,24.0,74.,24.0,0.,24.0
1979-07-12 00:23:22.710 ,2,1,41.,24.0,6.,24.0,76.,24.0,0.,24.0
1979-07-12 00:23:46.710 ,6,1,43.,24.0,9.,24.0,70.,24.0,0.,24.0
1979-07-12 00:24:10.710 ,5,1,45.,24.0,6.,24.0,70.,24.0,0.,24.0
1979-07-12 00:24:34.710 ,1,1,59.,24.0,13.,24.0,52.,24.0,0.,24.0
1979-07-12 00:24:58.710 ,2,1,46.,24.0,14.,24.0,80.,24.0,0.,24.0
1979-07-12 00:25:22.710 ,6,1,68.,24.0,17.,24.0,100.,24.0,0.,24.0
1979-07-12 00:25:46.710 ,5,1,33.,24.0,8.,24.0,110.,24.0,0.,24.0
1979-07-12 00:26:10.710 ,1,1,59.,24.0,12.,24.0,86.,24.0,0.,24.0
1979-07-12 00:26:34.710 ,2,1,52.,24.0,7.,24.0,88.,24.0,0.,24.0
1979-07-12 00:26:58.710 ,6,1,55.,24.0,12.,24.0,80.,24.0,0.,24.0
1979-07-12 00:27:22.710 ,5,1,37.,24.0,4.,24.0,98.,24.0,0.,24.0
1979-07-12 00:27:46.710 ,1,1,68.,24.0,17.,24.0,90.,24.0,0.,24.0
1979-07-12 00:28:10.710 ,2,1,58.,24.0,13.,24.0,70.,24.0,0.,24.0
1979-07-12 00:28:34.710 ,6,1,61.,24.0,14.,24.0,94.,24.0,0.,24.0
1979-07-12 00:28:58.710 ,5,1,51.,24.0,8.,24.0,108.,24.0,0.,24.0
1979-07-12 00:29:22.710 ,1,1,54.,24.0,9.,24.0,70.,24.0,0.,24.0
1979-07-12 00:29:46.710 ,0,0,57.,24.0,6.,24.0,90.,24.0,0.,24.0
1979-07-12 00:30:10.710 ,0,0,82.,24.0,15.,24.0,82.,24.0,0.,24.0
1979-07-12 00:30:34.710 ,5,1,49.,24.0,4.,24.0,90.,24.0,0.,24.0
1979-07-12 00:30:58.710 ,5,0,68.,24.0,11.,24.0,92.,24.0,0.,24.0
1979-07-12 00:31:22.710 ,4,1,70.,24.0,17.,24.0,82.,24.0,0.,24.0
1979-07-12 00:31:46.710 ,4,0,66.,24.0,14.,24.0,100.,24.0,0.,24.0
1979-07-12 00:32:10.710 ,3,1,82.,24.0,15.,24.0,90.,24.0,0.,24.0
1979-07-12 00:32:34.710 ,3,0,72.,24.0,12.,24.0,76.,24.0,0.,24.0
1979-07-12 00:32:58.710 ,2,1,68.,24.0,27.,24.0,74.,24.0,0.,24.0
1979-07-12 00:33:22.710 ,2,0,52.,24.0,14.,24.0,66.,24.0,0.,24.0
1979-07-12 00:33:46.710 ,1,1,61.,24.0,12.,24.0,76.,24.0,0.,24.0
1979-07-12 00:34:10.710 ,1,0,59.,24.0,11.,24.0,106.,24.0,0.,24.0
1979-07-12 00:34:34.710 ,0,1,51.,24.0,14.,24.0,78.,24.0,0.,24.0
1979-07-12 00:34:58.710 ,0,0,39.,24.0,9.,24.0,100.,24.0,0.,24.0
1979-07-12 00:35:22.710 ,0,1,43.,24.0,7.,24.0,90.,24.0,0.,24.0
1979-07-12 00:35:46.710 ,0,0,43.,24.0,11.,24.0,90.,24.0,0.,24.0
1979-07-12 00:36:10.710 ,1,1,45.,24.0,11.,24.0,92.,24.0,0.,24.0
1979-07-12 00:36:34.710 ,1,0,58.,24.0,9.,24.0,94.,24.0,0.,24.0
1979-07-12 00:36:58.710 ,2,1,66.,24.0,10.,24.0,72.,24.0,0.,24.0
1979-07-12 00:37:22.710 ,2,0,70.,24.0,11.,24.0,90.,24.0,0.,24.0
1979-07-12 00:37:46.710 ,3,1,70.,24.0,14.,24.0,92.,24.0,0.,24.0
1979-07-12 00:38:10.710 ,3,0,96.,24.0,12.,24.0,90.,24.0,0.,24.0
1979-07-12 00:38:34.710 ,4,1,78.,24.0,18.,24.0,94.,24.0,0.,24.0
1979-07-12 00:38:58.710 ,4,0,98.,24.0,21.,24.0,116.,24.0,0.,24.0
1979-07-12 00:39:22.710 ,5,1,88.,24.0,10.,24.0,136.,24.0,0.,24.0
1979-07-12 00:39:46.710 ,5,0,92.,24.0,12.,24.0,122.,24.0,0.,24.0
1979-07-12 00:40:10.710 ,6,1,92.,24.0,11.,24.0,106.,24.0,0.,24.0
1979-07-12 00:40:34.710 ,6,0,68.,24.0,10.,24.0,108.,24.0,0.,24.0
1979-07-12 00:40:58.710 ,7,1,60.,24.0,17.,24.0,110.,24.0,0.,24.0
1979-07-12 00:41:22.710 ,7,0,30.,24.0,0.,24.0,116.,24.0,0.,24.0
1979-07-12 00:41:46.710 ,7,1,35.,24.0,0.,24.0,90.,24.0,0.,24.0
1979-07-12 00:42:10.710 ,7,0,25.,24.0,0.,24.0,112.,24.0,0.,24.0
1979-07-12 00:42:34.710 ,6,1,38.,24.0,0.,24.0,86.,24.0,0.,24.0
1979-07-12 00:42:58.710 ,6,0,70.,24.0,15.,24.0,94.,24.0,0.,24.0
1979-07-12 00:43:22.710 ,5,1,64.,24.0,14.,24.0,84.,24.0,0.,24.0
1979-07-12 00:43:46.710 ,5,0,56.,24.0,15.,24.0,100.,24.0,0.,24.0
1979-07-12 00:44:10.710 ,4,1,64.,24.0,16.,24.0,78.,24.0,0.,24.0
1979-07-12 00:44:34.710 ,4,0,78.,24.0,18.,24.0,92.,24.0,0.,24.0
1979-07-12 00:44:58.710 ,3,1,70.,24.0,10.,24.0,98.,24.0,0.,24.0
1979-07-12 00:45:22.710 ,3,0,72.,24.0,12.,24.0,68.,24.0,0.,24.0
1979-07-12 00:45:46.710 ,2,1,78.,24.0,14.,24.0,72.,24.0,0.,24.0
1979-07-12 00:46:10.710 ,2,0,54.,24.0,11.,24.0,80.,24.0,0.,24.0
1979-07-12 00:46:34.710 ,1,1,64.,24.0,8.,24.0,94.,24.0,0.,24.0
1979-07-12 00:46:58.710 ,1,0,52.,24.0,6.,24.0,86.,24.0,0.,24.0
1979-07-12 00:47:22.710 ,0,1,51.,24.0,14.,24.0,86.,24.0,0.,24.0
1979-07-12 00:47:46.710 ,0,0,46.,24.0,9.,24.0,96.,24.0,0.,24.0
1979-07-12 00:48:10.710 ,0,1,37.,24.0,9.,24.0,96.,24.0,0.,24.0
1979-07-12 00:48:34.710 ,0,0,45.,24.0,13.,24.0,104.,24.0,0.,24.0
1979-07-12 00:48:58.710 ,1,1,45.,24.0,4.,24.0,92.,24.0,0.,24.0
1979-07-12 00:49:22.710 ,1,0,41.,24.0,9.,24.0,96.,24.0,0.,24.0
1979-07-12 00:49:46.710 ,2,1,48.,24.0,3.,24.0,92.,24.0,0.,24.0
1979-07-12 00:50:10.710 ,2,0,54.,24.0,9.,24.0,94.,24.0,0.,24.0
1979-07-12 00:50:34.710 ,3,1,72.,24.0,8.,24.0,86.,24.0,0.,24.0
1979-07-12 00:50:58.710 ,3,0,98.,24.0,12.,24.0,84.,24.0,0.,24.0
1979-07-12 00:51:22.710 ,4,1,80.,24.0,10.,24.0,94.,24.0,0.,24.0
1979-07-12 00:51:46.710 ,4,0,76.,24.0,14.,24.0,106.,24.0,0.,24.0
1979-07-12 00:52:10.710 ,5,1,102.,24.0,15.,24.0,114.,24.0,0.,24.0
1979-07-12 00:52:34.710 ,5,0,72.,24.0,16.,24.0,106.,24.0,0.,24.0
1979-07-12 00:52:58.710 ,6,1,80.,24.0,14.,24.0,128.,24.0,0.,24.0
1979-07-12 00:53:22.710 ,6,0,58.,24.0,12.,24.0,126.,24.0,0.,24.0
1979-07-12 00:53:46.710 ,7,1,45.,24.0,8.,24.0,108.,24.0,0.,24.0
1979-07-12 00:54:10.710 ,7,0,27.,24.0,0.,24.0,106.,24.0,0.,24.0
1979-07-12 00:54:34.710 ,7,1,29.,24.0,0.,24.0,132.,24.0,0.,24.0
1979-07-12 00:54:58.710 ,7,0,32.,24.0,0.,24.0,104.,24.0,0.,24.0
1979-07-12 00:55:22.710 ,6,1,33.,24.0,1.,24.0,112.,24.0,0.,24.0
1979-07-12 00:55:46.710 ,6,0,59.,24.0,12.,24.0,116.,24.0,0.,24.0
1979-07-12 00:56:10.710 ,5,1,60.,24.0,10.,24.0,106.,24.0,0.,24.0
1979-07-12 00:56:34.710 ,5,0,80.,24.0,10.,24.0,116.,24.0,0.,24.0
1979-07-12 00:56:58.710 ,4,1,84.,24.0,12.,24.0,126.,24.0,0.,24.0
1979-07-12 00:57:22.710 ,4,0,86.,24.0,17.,24.0,114.,24.0,0.,24.0
1979-07-12 00:57:46.710 ,3,1,78.,24.0,20.,24.0,98.,24.0,0.,24.0
1979-07-12 00:58:10.710 ,3,0,84.,24.0,19.,24.0,114.,24.0,0.,24.0
1979-07-12 00:58:34.710 ,2,1,92.,24.0,13.,24.0,80.,24.0,0.,24.0
1979-07-12 00:58:58.710 ,2,0,72.,24.0,11.,24.0,102.,24.0,0.,24.0
1979-07-12 00:59:22.710 ,1,1,70.,24.0,13.,24.0,106.,24.0,0.,24.0
1979-07-12 00:59:46.710 ,1,0,55.,24.0,19.,24.0,96.,24.0,0.,24.0
1979-07-12 01:00:10.710 ,0,1,70.,24.0,9.,24.0,98.,24.0,0.,24.0
1979-07-12 01:00:34.710 ,0,0,40.,24.0,9.,24.0,108.,24.0,0.,24.0
1979-07-12 01:00:58.710 ,0,1,41.,24.0,7.,24.0,120.,24.0,0.,24.0
1979-07-12 01:01:22.710 ,0,0,66.,24.0,7.,24.0,124.,24.0,0.,24.0
1979-07-12 01:01:46.710 ,1,1,51.,24.0,10.,24.0,118.,24.0,0.,24.0
1979-07-12 01:02:10.710 ,1,0,64.,24.0,17.,24.0,118.,24.0,0.,24.0
1979-07-12 01:02:34.710 ,2,1,66.,24.0,15.,24.0,106.,24.0,0.,24.0
1979-07-12 01:02:58.710 ,2,0,78.,24.0,14.,24.0,122.,24.0,0.,24.0
1979-07-12 01:03:22.710 ,3,1,84.,24.0,21.,24.0,92.,24.0,0.,24.0
1979-07-12 01:03:46.710 ,3,0,102.,24.0,15.,24.0,98.,24.0,0.,24.0
1979-07-12 01:04:10.710 ,4,1,112.,24.0,18.,24.0,122.,24.0,0.,24.0
1979-07-12 01:04:34.710 ,4,0,110.,24.0,17.,24.0,128.,24.0,0.,24.0
1979-07-12 01:04:58.710 ,5,1,84.,24.0,26.,24.0,132.,24.0,0.,24.0
1979-07-12 01:05:22.710 ,5,0,104.,24.0,29.,24.0,144.,24.0,0.,24.0
1979-07-12 01:05:46.710 ,6,1,102.,24.0,17.,24.0,136.,24.0,0.,24.0
1979-07-12 01:06:10.710 ,6,0,92.,24.0,17.,24.0,128.,24.0,0.,24.0
1979-07-12 01:07:22.710 ,0,0,63.,24.0,13.,24.0,136.,24.0,0.,24.0
1979-07-12 01:07:46.710 ,1,1,78.,24.0,20.,24.0,126.,24.0,0.,24.0
1979-07-12 01:08:10.710 ,2,1,63.,24.0,17.,24.0,140.,24.0,0.,24.0
1979-07-12 01:08:34.710 ,6,1,94.,24.0,26.,24.0,126.,24.0,0.,24.0
1979-07-12 01:08:58.710 ,5,1,72.,24.0,11.,24.0,128.,24.0,0.,24.0
1979-07-12 01:09:22.710 ,1,1,82.,24.0,18.,24.0,128.,24.0,0.,24.0
1979-07-12 01:09:46.710 ,2,1,74.,24.0,9.,24.0,90.,24.0,0.,24.0
1979-07-12 01:10:10.710 ,6,1,98.,24.0,21.,24.0,96.,24.0,0.,24.0
1979-07-12 01:10:34.710 ,5,1,63.,24.0,7.,24.0,140.,24.0,0.,24.0
1979-07-12 01:10:58.710 ,1,1,84.,24.0,14.,24.0,106.,24.0,0.,24.0
1979-07-12 01:11:22.710 ,2,1,80.,24.0,13.,24.0,116.,24.0,0.,24.0
1979-07-12 01:11:46.710 ,6,1,104.,24.0,21.,24.0,128.,24.0,0.,24.0
1979-07-12 01:12:10.710 ,5,1,63.,24.0,6.,24.0,144.,24.0,0.,24.0
1979-07-12 01:12:34.710 ,1,1,94.,24.0,18.,24.0,136.,24.0,0.,24.0
1979-07-12 01:12:58.710 ,2,1,74.,24.0,11.,24.0,124.,24.0,0.,24.0
1979-07-12 01:13:22.710 ,6,1,110.,24.0,16.,24.0,172.,24.0,0.,24.0
1979-07-12 01:13:46.710 ,5,1,72.,24.0,25.,24.0,160.,24.0,0.,24.0
1979-07-12 01:14:10.710 ,1,1,86.,24.0,19.,24.0,140.,24.0,0.,24.0
1979-07-12 01:14:34.710 ,2,1,72.,24.0,8.,24.0,144.,24.0,0.,24.0
1979-07-12 01:14:58.710 ,6,1,124.,24.0,21.,24.0,132.,24.0,0.,24.0
1979-07-12 01:15:22.710 ,5,1,74.,24.0,9.,24.0,152.,24.0,0.,24.0
1979-07-12 01:15:46.710 ,1,1,104.,24.0,16.,24.0,136.,24.0,0.,24.0
1979-07-12 01:16:10.710 ,2,1,62.,24.0,17.,24.0,128.,24.0,0.,24.0
1979-07-12 01:16:34.710 ,6,1,124.,24.0,32.,24.0,144.,24.0,0.,24.0
1979-07-12 01:16:58.710 ,5,1,64.,24.0,12.,24.0,144.,24.0,0.,24.0
1979-07-12 01:17:22.710 ,1,1,112.,24.0,26.,24.0,132.,24.0,0.,24.0
1979-07-12 01:17:46.710 ,0,0,78.,24.0,14.,24.0,136.,24.0,0.,24.0
1979-07-12 01:18:10.710 ,0,0,116.,24.0,20.,24.0,132.,24.0,0.,24.0
1979-07-12 01:18:34.710 ,5,1,53.,24.0,7.,24.0,140.,24.0,0.,24.0
1979-07-12 01:18:58.710 ,5,0,116.,24.0,23.,24.0,132.,24.0,0.,24.0
1979-07-12 01:19:22.710 ,4,1,120.,24.0,23.,24.0,144.,24.0,0.,24.0
1979-07-12 01:19:46.710 ,4,0,108.,24.0,27.,24.0,132.,24.0,0.,24.0
1979-07-12 01:20:10.710 ,3,1,110.,24.0,23.,24.0,140.,24.0,0.,24.0
1979-07-12 01:20:34.710 ,3,0,114.,24.0,19.,24.0,160.,24.0,0.,24.0
1979-07-12 01:20:58.710 ,2,1,114.,24.0,24.,24.0,140.,24.0,0.,24.0
1979-07-12 01:21:22.710 ,2,0,70.,24.0,23.,24.0,120.,24.0,0.,24.0
1979-07-12 01:21:46.710 ,1,1,80.,24.0,15.,24.0,110.,24.0,0.,24.0
1979-07-12 01:22:10.710 ,1,0,76.,24.0,14.,24.0,140.,24.0,0.,24.0
1979-07-12 01:22:34.710 ,0,1,66.,24.0,15.,24.0,128.,24.0,0.,24.0
1979-07-12 01:22:58.710 ,0,0,64.,24.0,17.,24.0,144.,24.0,0.,24.0
1979-07-12 01:23:22.710 ,0,1,64.,24.0,17.,24.0,148.,24.0,0.,24.0
1979-07-12 01:23:46.710 ,0,0,68.,24.0,10.,24.0,136.,24.0,0.,24.0
1979-07-12 01:24:10.710 ,1,1,59.,24.0,12.,24.0,128.,24.0,0.,24.0
1979-07-12 01:24:34.710 ,1,0,80.,24.0,17.,24.0,148.,24.0,0.,24.0
1979-07-12 01:24:58.710 ,2,1,86.,24.0,17.,24.0,136.,24.0,0.,24.0
1979-07-12 01:25:22.710 ,2,0,104.,24.0,26.,24.0,136.,24.0,0.,24.0
1979-07-12 01:25:46.710 ,3,1,114.,24.0,25.,24.0,124.,24.0,0.,24.0
1979-07-12 01:26:10.710 ,3,0,132.,24.0,22.,24.0,144.,24.0,0.,24.0
1979-07-12 01:26:34.710 ,4,1,132.,24.0,21.,24.0,120.,24.0,0.,24.0
1979-07-12 01:26:58.710 ,4,0,124.,24.0,26.,24.0,148.,24.0,0.,24.0
1979-07-12 01:27:22.710 ,5,1,104.,24.0,29.,24.0,136.,24.0,0.,24.0
1979-07-12 01:27:46.710 ,5,0,110.,24.0,23.,24.0,128.,24.0,0.,24.0
1979-07-12 01:28:10.710 ,6,1,112.,24.0,13.,24.0,116.,24.0,0.,24.0
1979-07-12 01:28:34.710 ,6,0,70.,24.0,22.,24.0,132.,24.0,0.,24.0
1979-07-12 01:28:58.710 ,7,1,78.,24.0,10.,24.0,120.,24.0,0.,24.0
1979-07-12 01:29:22.710 ,7,0,31.,24.0,0.,24.0,132.,24.0,0.,24.0
1979-07-12 01:29:46.710 ,7,1,35.,24.0,0.,24.0,128.,24.0,0.,24.0
1979-07-12 01:30:10.710 ,7,0,38.,24.0,0.,24.0,160.,24.0,0.,24.0
1979-07-12 01:30:34.710 ,6,1,34.,24.0,1.,24.0,132.,24.0,0.,24.0
1979-07-12 01:30:58.710 ,6,0,70.,24.0,10.,24.0,144.,24.0,0.,24.0
1979-07-12 01:31:22.710 ,5,1,84.,24.0,16.,24.0,144.,24.0,0.,24.0
1979-07-12 01:31:46.710 ,5,0,104.,24.0,30.,24.0,122.,24.0,0.,24.0
1979-07-12 01:32:10.710 ,4,1,102.,24.0,18.,24.0,128.,24.0,0.,24.0
1979-07-12 01:32:34.710 ,4,0,108.,24.0,18.,24.0,122.,24.0,0.,24.0
1979-07-12 01:32:58.710 ,3,1,88.,24.0,22.,24.0,114.,24.0,0.,24.0
1979-07-12 01:33:22.710 ,3,0,92.,24.0,17.,24.0,108.,24.0,0.,24.0
1979-07-12 01:33:46.710 ,2,1,88.,24.0,12.,24.0,104.,24.0,0.,24.0
1979-07-12 01:34:10.710 ,2,0,84.,24.0,8.,24.0,102.,24.0,0.,24.0
1979-07-12 01:34:34.710 ,1,1,66.,24.0,13.,24.0,114.,24.0,0.,24.0
1979-07-12 01:34:58.710 ,1,0,56.,24.0,12.,24.0,110.,24.0,0.,24.0
1979-07-12 01:35:22.710 ,0,1,70.,24.0,8.,24.0,116.,24.0,0.,24.0
1979-07-12 01:35:46.710 ,0,0,58.,24.0,4.,24.0,118.,24.0,0.,24.0
1979-07-12 01:36:10.710 ,0,1,44.,24.0,7.,24.0,116.,24.0,0.,24.0
1979-07-12 01:36:34.710 ,0,0,42.,24.0,15.,24.0,108.,24.0,0.,24.0
1979-07-12 01:36:58.710 ,1,1,42.,24.0,11.,24.0,132.,24.0,0.,24.0
1979-07-12 01:37:22.710 ,1,0,51.,24.0,14.,24.0,122.,24.0,0.,24.0
1979-07-12 01:37:46.710 ,2,1,50.,24.0,9.,24.0,100.,24.0,0.,24.0
1979-07-12 01:38:10.710 ,2,0,76.,24.0,9.,24.0,116.,24.0,0.,24.0
1979-07-12 01:38:34.710 ,3,1,72.,24.0,21.,24.0,108.,24.0,0.,24.0
1979-07-12 01:38:58.710 ,3,0,66.,24.0,12.,24.0,102.,24.0,0.,24.0
1979-07-12 01:39:22.710 ,4,1,84.,24.0,14.,24.0,104.,24.0,0.,24.0
1979-07-12 01:39:46.710 ,4,0,84.,24.0,16.,24.0,128.,24.0,0.,24.0
1979-07-12 01:40:10.710 ,5,1,86.,24.0,16.,24.0,114.,24.0,0.,24.0
1979-07-12 01:40:34.710 ,5,0,72.,24.0,18.,24.0,118.,24.0,0.,24.0
1979-07-12 01:40:58.710 ,6,1,80.,24.0,14.,24.0,94.,24.0,0.,24.0
1979-07-12 01:41:22.710 ,6,0,48.,24.0,10.,24.0,106.,24.0,0.,24.0
1979-07-12 01:41:46.710 ,7,1,45.,24.0,11.,24.0,114.,24.0,0.,24.0
1979-07-12 01:42:10.710 ,7,0,42.,24.0,0.,24.0,106.,24.0,0.,24.0
1979-07-12 01:42:34.710 ,7,1,36.,24.0,0.,24.0,118.,24.0,0.,24.0
1979-07-12 01:42:58.710 ,7,0,36.,24.0,0.,24.0,104.,24.0,0.,24.0
1979-07-12 01:43:22.710 ,6,1,35.,24.0,3.,24.0,110.,24.0,0.,24.0
1979-07-12 01:43:46.710 ,6,0,42.,24.0,6.,24.0,84.,24.0,0.,24.0
1979-07-12 01:44:10.710 ,5,1,47.,24.0,12.,24.0,104.,24.0,0.,24.0
1979-07-12 01:44:34.710 ,5,0,55.,24.0,7.,24.0,90.,24.0,0.,24.0
1979-07-12 01:44:58.710 ,4,1,61.,24.0,9.,24.0,90.,24.0,0.,24.0
1979-07-12 01:45:22.710 ,4,0,48.,24.0,13.,24.0,70.,24.0,0.,24.0
1979-07-12 01:45:46.710 ,3,1,40.,24.0,6.,24.0,84.,24.0,0.,24.0
1979-07-12 01:46:10.710 ,3,0,48.,24.0,9.,24.0,76.,24.0,0.,24.0
1979-07-12 01:46:34.710 ,2,1,36.,24.0,5.,24.0,58.,24.0,0.,24.0
1979-07-12 01:46:58.710 ,2,0,30.,24.0,5.,24.0,61.,24.0,0.,24.0
1979-07-12 01:47:22.710 ,1,1,24.,24.0,7.,24.0,84.,24.0,0.,24.0
1979-07-12 01:47:46.710 ,1,0,20.,24.0,7.,24.0,66.,24.0,0.,24.0
1979-07-12 01:48:10.710 ,0,1,27.,24.0,5.,24.0,70.,24.0,0.,24.0
1979-07-12 01:48:34.710 ,0,0,12.,24.0,6.,24.0,84.,24.0,0.,24.0
1979-07-12 01:48:58.710 ,0,1,15.,24.0,6.,24.0,66.,24.0,0.,24.0
1979-07-12 01:49:22.710 ,0,0,18.,24.0,4.,24.0,86.,24.0,0.,24.0
1979-07-12 01:49:46.710 ,1,1,22.,24.0,4.,24.0,76.,24.0,0.,24.0
1979-07-12 01:50:10.710 ,1,0,21.,24.0,11.,24.0,58.,24.0,0.,24.0
1979-07-12 01:50:34.710 ,2,1,13.,24.0,1.,24.0,62.,24.0,0.,24.0
1979-07-12 01:50:58.710 ,2,0,39.,24.0,9.,24.0,70.,24.0,0.,24.0
1979-07-12 01:51:22.710 ,3,1,36.,24.0,6.,24.0,62.,24.0,0.,24.0
1979-07-12 01:51:46.710 ,3,0,42.,24.0,8.,24.0,48.,24.0,0.,24.0
1979-07-12 01:52:10.710 ,4,1,29.,24.0,6.,24.0,53.,24.0,0.,24.0
1979-07-12 01:52:34.710 ,4,0,28.,24.0,5.,24.0,68.,24.0,0.,24.0
1979-07-12 01:52:58.710 ,5,1,29.,24.0,4.,24.0,70.,24.0,0.,24.0
1979-07-12 01:53:22.710 ,5,0,37.,24.0,7.,24.0,70.,24.0,0.,24.0
1979-07-12 01:53:46.710 ,6,1,34.,24.0,2.,24.0,74.,24.0,0.,24.0
1979-07-12 01:54:10.710 ,6,0,20.,24.0,6.,24.0,94.,24.0,0.,24.0
1979-07-12 01:54:34.710 ,7,0,24.,24.0,5.,24.0,58.,24.0,0.,24.0
1979-07-12 01:54:58.710 ,7,0,25.,24.0,0.,24.0,64.,24.0,0.,24.0
1979-07-12 01:55:22.710 ,5,1,24.,24.0,0.,24.0,64.,24.0,0.,24.0
1979-07-12 01:55:46.710 ,1,1,30.,24.0,2.,24.0,63.,24.0,0.,24.0
1979-07-12 01:56:10.710 ,2,1,19.,24.0,3.,24.0,48.,24.0,0.,24.0
1979-07-12 01:56:34.710 ,6,1,26.,24.0,0.,24.0,40.,24.0,0.,24.0
1979-07-12 01:56:58.710 ,5,1,25.,24.0,1.,24.0,66.,24.0,0.,24.0
1979-07-12 01:57:22.710 ,1,1,24.,24.0,3.,24.0,52.,24.0,0.,24.0
1979-07-12 01:57:46.710 ,2,1,19.,24.0,2.,24.0,54.,24.0,0.,24.0
1979-07-12 01:58:10.710 ,6,1,22.,24.0,5.,24.0,50.,24.0,0.,24.0
1979-07-12 01:58:34.710 ,5,1,23.,24.0,1.,24.0,60.,24.0,0.,24.0
1979-07-12 01:58:58.710 ,1,1,22.,24.0,5.,24.0,42.,24.0,0.,24.0
1979-07-12 01:59:22.710 ,2,1,14.,24.0,4.,24.0,49.,24.0,0.,24.0
1979-07-12 01:59:46.710 ,6,1,31.,24.0,4.,24.0,70.,24.0,0.,24.0
1979-07-12 02:00:10.710 ,5,1,28.,24.0,3.,24.0,53.,24.0,0.,24.0
1979-07-12 02:00:34.710 ,1,1,29.,24.0,4.,24.0,63.,24.0,0.,24.0
1979-07-12 02:00:58.710 ,2,1,22.,24.0,1.,24.0,43.,24.0,0.,24.0
1979-07-12 02:01:22.710 ,6,1,27.,24.0,3.,24.0,62.,24.0,0.,24.0
1979-07-12 02:01:46.710 ,5,1,20.,24.0,1.,24.0,47.,24.0,0.,24.0
1979-07-12 02:02:10.710 ,1,1,20.,24.0,2.,24.0,48.,24.0,0.,24.0
1979-07-12 02:02:34.710 ,2,1,12.,24.0,2.,24.0,39.,24.0,0.,24.0
1979-07-12 02:02:58.710 ,6,1,27.,24.0,3.,24.0,48.,24.0,0.,24.0
1979-07-12 02:03:22.710 ,5,1,18.,24.0,3.,24.0,48.,24.0,0.,24.0
1979-07-12 02:03:46.710 ,1,1,19.,24.0,5.,24.0,49.,24.0,0.,24.0
1979-07-12 02:04:10.710 ,2,1,12.,24.0,2.,24.0,43.,24.0,0.,24.0
1979-07-12 02:04:34.710 ,6,1,25.,24.0,2.,24.0,50.,24.0,0.,24.0
1979-07-12 02:04:58.710 ,5,1,21.,24.0,5.,24.0,52.,24.0,0.,24.0
1979-07-12 02:05:22.710 ,1,1,20.,24.0,4.,24.0,61.,24.0,0.,24.0
1979-07-12 02:05:46.710 ,0,0,13.,24.0,0.,24.0,40.,24.0,0.,24.0
1979-07-12 02:06:10.710 ,0,0,22.,24.0,4.,24.0,45.,24.0,0.,24.0
1979-07-12 02:06:34.710 ,5,1,25.,24.0,0.,24.0,51.,24.0,0.,24.0
1979-07-12 02:06:58.710 ,5,0,31.,24.0,4.,24.0,46.,24.0,0.,24.0
1979-07-12 02:07:22.710 ,4,1,12.,24.0,3.,24.0,47.,24.0,0.,24.0
1979-07-12 02:07:46.710 ,4,0,18.,24.0,3.,24.0,35.,24.0,0.,24.0
1979-07-12 02:08:10.710 ,3,1,14.,24.0,2.,24.0,39.,24.0,0.,24.0
1979-07-12 02:08:34.710 ,0,0,15.,24.0,1.,24.0,34.,24.0,0.,24.0
1979-07-12 02:09:48.510 ,0,0,10.,24.0,4.,24.0,47.,24.0,0.,24.0
1979-07-12 02:10:10.710 ,0,0,16.,24.0,0.,24.0,35.,24.0,0.,24.0
1979-07-12 02:10:34.710 ,0,1,6.,24.0,4.,24.0,57.,24.0,0.,24.0
1979-07-12 02:10:58.710 ,0,0,15.,24.0,2.,24.0,37.,24.0,0.,24.0
1979-07-12 02:11:22.710 ,0,1,10.,24.0,1.,24.0,39.,24.0,0.,24.0
1979-07-12 02:11:46.710 ,0,0,10.,24.0,0.,24.0,49.,24.0,0.,24.0
1979-07-12 02:12:10.710 ,1,1,7.,24.0,1.,24.0,45.,24.0,0.,24.0
1979-07-12 02:12:34.710 ,1,0,17.,24.0,2.,24.0,47.,24.0,0.,24.0
1979-07-12 02:12:58.710 ,2,1,9.,24.0,1.,24.0,19.,24.0,0.,24.0
1979-07-12 02:13:22.710 ,2,0,8.,24.0,0.,24.0,0.,24.0,0.,24.0
1979-07-12 02:13:46.710 ,3,1,10.,24.0,3.,24.0,0.,24.0,0.,24.0
1979-07-12 02:14:10.710 ,3,0,13.,24.0,0.,24.0,0.,24.0,0.,24.0
1979-07-12 02:14:34.710 ,4,1,16.,24.0,5.,24.0,0.,24.0,0.,24.0
1979-07-12 02:14:58.710 ,0,0,20.,24.0,3.,24.0,0.,24.0,0.,24.0
1979-07-12 02:14:58.710 ,4,0,20.,24.0,3.,24.0,0.,24.0,0.,24.0
1979-07-12 02:15:22.710 ,5,1,9.,24.0,1.,24.0,0.,24.0,0.,24.0
1979-07-12 02:15:46.710 ,5,0,18.,24.0,4.,24.0,0.,24.0,0.,24.0
1979-07-12 02:16:10.710 ,6,1,22.,24.0,1.,24.0,0.,24.0,0.,24.0
1979-07-12 02:16:34.710 ,6,0,13.,24.0,2.,24.0,0.,24.0,0.,24.0
1979-07-12 02:16:58.710 ,7,1,18.,24.0,0.,24.0,0.,24.0,0.,24.0
1979-07-12 02:17:22.710 ,7,0,32.,24.0,0.,24.0,0.,24.0,0.,24.0
1979-07-12 02:17:46.710 ,7,1,29.,24.0,0.,24.0,0.,24.0,0.,24.0
1979-07-12 02:18:10.710 ,7,0,40.,24.0,0.,24.0,0.,24.0,0.,24.0
1979-07-12 02:18:34.710 ,6,1,31.,24.0,0.,24.0,0.,24.0,0.,24.0
1979-07-12 02:18:58.710 ,6,0,11.,24.0,3.,24.0,0.,24.0,0.,24.0
1979-07-12 02:19:22.710 ,5,1,19.,24.0,4.,24.0,0.,24.0,0.,24.0
1979-07-12 02:19:46.710 ,5,0,16.,24.0,3.,24.0,0.,24.0,0.,24.0
1979-07-12 02:20:10.710 ,4,1,10.,24.0,2.,24.0,0.,24.0,0.,24.0
1979-07-12 02:20:34.710 ,4,0,9.,24.0,0.,24.0,0.,24.0,0.,24.0
1979-07-12 02:20:58.710 ,3,1,14.,24.0,2.,24.0,0.,24.0,0.,24.0
1979-07-12 02:21:22.710 ,3,0,11.,24.0,2.,24.0,0.,24.0,0.,24.0
1979-07-12 02:21:46.710 ,2,1,13.,24.0,0.,24.0,0.,24.0,0.,24.0
1979-07-12 02:22:10.710 ,2,0,9.,24.0,2.,24.0,0.,24.0,0.,24.0
1979-07-12 02:22:34.710 ,1,1,8.,24.0,3.,24.0,0.,24.0,0.,24.0
1979-07-12 02:22:58.710 ,1,0,7.,24.0,0.,24.0,0.,24.0,0.,24.0
1979-07-12 02:23:22.710 ,0,1,6.,24.0,0.,24.0,0.,24.0,0.,24.0
1979-07-12 02:23:46.710 ,0,0,7.,24.0,4.,24.0,0.,24.0,0.,24.0
1979-07-12 02:24:10.710 ,0,1,4.,24.0,2.,24.0,0.,24.0,0.,24.0
1979-07-12 02:24:34.710 ,0,0,7.,24.0,1.,24.0,0.,24.0,0.,24.0
1979-07-12 02:24:58.710 ,1,1,11.,24.0,3.,24.0,0.,24.0,0.,24.0
1979-07-12 02:25:22.710 ,1,0,14.,24.0,4.,24.0,0.,24.0,0.,24.0
1979-07-12 02:25:46.710 ,2,1,6.,24.0,2.,24.0,0.,24.0,0.,24.0
1979-07-12 02:26:10.710 ,2,0,5.,24.0,4.,24.0,0.,24.0,0.,24.0
1979-07-12 02:26:34.710 ,3,1,8.,24.0,2.,24.0,0.,24.0,0.,24.0
1979-07-12 02:26:58.710 ,3,0,9.,24.0,4.,24.0,0.,24.0,0.,24.0
1979-07-12 02:27:22.710 ,4,1,13.,24.0,0.,24.0,0.,24.0,0.,24.0
1979-07-12 02:27:46.710 ,4,0,18.,24.0,2.,24.0,0.,24.0,0.,24.0
1979-07-12 02:28:10.710 ,5,1,16.,24.0,3.,24.0,0.,24.0,0.,24.0
1979-07-12 02:28:34.710 ,5,0,8.,24.0,2.,24.0,0.,24.0,0.,24.0
1979-07-12 02:28:58.710 ,6,1,10.,24.0,0.,24.0,0.,24.0,0.,24.0
1979-07-12 02:29:22.710 ,6,0,14.,24.0,0.,24.0,0.,24.0,0.,24.0
1979-07-12 02:29:46.710 ,7,1,16.,24.0,3.,24.0,0.,24.0,0.,24.0
1979-07-12 02:30:10.710 ,7,0,27.,24.0,0.,24.0,0.,24.0,0.,24.0
1979-07-12 02:30:34.710 ,7,1,33.,24.0,0.,24.0,0.,24.0,0.,24.0
1979-07-12 02:30:58.710 ,7,0,22.,24.0,0.,24.0,0.,24.0,0.,24.0
1979-07-12 02:31:22.710 ,6,1,17.,24.0,0.,24.0,0.,24.0,0.,24.0
1979-07-12 02:31:46.710 ,6,0,9.,24.0,0.,24.0,0.,24.0,0.,24.0
1979-07-12 02:32:10.710 ,5,1,5.,24.0,1.,24.0,0.,24.0,0.,24.0
1979-07-12 02:32:34.710 ,5,0,10.,24.0,4.,24.0,0.,24.0,0.,24.0
1979-07-12 02:32:58.710 ,4,1,8.,24.0,1.,24.0,0.,24.0,0.,24.0
1979-07-12 02:33:22.710 ,4,0,5.,24.0,0.,24.0,0.,24.0,0.,24.0
1979-07-12 02:33:46.710 ,3,1,12.,24.0,1.,24.0,0.,24.0,0.,24.0
1979-07-12 02:34:10.710 ,3,0,11.,24.0,1.,24.0,0.,24.0,0.,24.0
1979-07-12 02:34:34.710 ,2,1,10.,24.0,1.,24.0,0.,24.0,0.,24.0
1979-07-12 02:34:58.710 ,2,0,9.,24.0,0.,24.0,0.,24.0,0.,24.0